{"data":{"norad_id":57131,"epoch":"2026-09-20T23:30:36.061920Z","epoch_age_seconds":79494,"freshness":"FRESH","line1":"1 57131U 23090AG  26263.97958405  .00000024  00000+0  10374-4 0  9991","line2":"2 57131  43.0032 240.1806 0000612 317.9828  42.0977 15.27573911180222","mean_motion":15.27573911,"eccentricity":6.12e-5,"inclination_deg":43.0032,"raan_deg":240.1806,"arg_perigee_deg":317.9828,"mean_anomaly_deg":42.0977,"bstar":1.0374e-5,"rev_number":18022,"period_min":94.26712446649,"perigee_km":482.6474230518,"apogee_km":483.48723446164,"semimajor_km":6861.2043287567,"source":"CELESTRAK","updated_at":"2026-09-21T09:00:33.564215Z"}}